This demonstration page uses our WeatherBlox Daily Observations layout. Learn more.

Hourly Observations for November 7, 2019

Temp ( °F °C ) Dew Point ( °F °C ) Humidity (%) Winds ( mph kmh ) Pressure ( in mb ) Visibility ( mi km ) Precip ( " mm )
12:15 am 00:15 Partly Cloudy 45 7 36 2 71 71 Calm 30.39 1029 10 16.09344 0 0
12:35 am 00:35 Partly Cloudy 46 8 34 1 62 62 S 8 13 30.36 1028 10 16.09344 0 0
12:55 am 00:55 Mostly Cloudy 46 8 36 2 66 66 S 8 13 30.36 1028 10 16.09344 0 0
1:15 am 01:15 Partly Cloudy 46 8 36 2 66 66 S 7 11 30.36 1028 10 16.09344 0 0
1:55 am 01:55 Cloudy 46 8 36 2 66 66 S 6 9 30.33 1027 10 16.09344 0 0
2:15 am 02:15 Mostly Cloudy 45 7 37 3 76 76 S 5 7 30.33 1027 10 16.09344 0 0
2:35 am 02:35 Partly Cloudy 46 8 37 3 71 71 S 8 13 30.33 1027 10 16.09344 0 0
2:55 am 02:55 Partly Cloudy 45 7 37 3 76 76 SSW 3 6 30.33 1027 10 16.09344 0 0
3:15 am 03:15 Partly Cloudy 46 8 37 3 71 71 S 8 13 30.3 1026 10 16.09344 0 0
3:35 am 03:35 Partly Cloudy 46 8 37 3 71 71 S 6 9 30.3 1026 10 16.09344 0 0
3:55 am 03:55 Mostly Cloudy 46 8 39 4 76 76 S 10 17 30.3 1026 10 16.09344 0 0
4:15 am 04:15 Mostly Cloudy 46 8 39 4 76 76 S 9 15 30.27 1025 10 16.09344 0 0
4:35 am 04:35 Mostly Cloudy 46 8 39 4 76 76 S 8 13 30.27 1025 10 16.09344 0 0
4:55 am 04:55 Cloudy 46 8 39 4 76 76 S 7 11 30.27 1025 10 16.09344 0 0
5:15 am 05:15 Cloudy 46 8 39 4 76 76 S 7 11 30.27 1025 10 16.09344 0 0
5:35 am 05:35 Cloudy 46 8 39 4 76 76 S 6 9 30.27 1025 10 16.09344 0 0
5:55 am 05:55 Cloudy 46 8 39 4 76 76 S 9 15 30.27 1025 10 16.09344 0 0
6:35 am 06:35 Cloudy 46 8 41 5 82 82 S 6 9 30.24 1024 10 16.09344 0 0
6:55 am 06:55 Cloudy 46 8 41 5 82 82 S 8 13 30.24 1024 10 16.09344 0 0
7:15 am 07:15 Cloudy 48 9 41 5 76 76 SSW 9 15 30.24 1024 10 16.09344 0 0
7:35 am 07:35 Cloudy 48 9 41 5 76 76 S 9 15 30.24 1024 10 16.09344 0 0
7:55 am 07:55 Cloudy 48 9 41 5 76 76 S 8 13 30.24 1024 10 16.09344 0 0
8:15 am 08:15 Cloudy 50 10 41 5 71 71 SSW 5 7 30.24 1024 10 16.09344 0 0
8:35 am 08:35 Cloudy 50 10 41 5 71 71 undefined N/A 30.24 1024 10 16.09344 0 0
8:55 am 08:55 Cloudy 50 10 41 5 71 71 S 8 13 30.21 1023 10 16.09344 0 0
9:15 am 09:15 Cloudy 50 10 43 6 76 76 SSW 5 7 30.24 1024 10 16.09344 0 0
9:35 am 09:35 Cloudy 50 10 43 6 76 76 SSW 5 7 30.24 1024 10 16.09344 0 0
9:55 am 09:55 Cloudy 50 10 43 6 76 76 SSW 5 7 30.21 1023 10 16.09344 0 0
10:15 am 10:15 Cloudy 50 10 43 6 76 76 SSW 3 6 30.21 1023 10 16.09344 0 0
10:35 am 10:35 Cloudy 52 11 45 7 77 77 SSW 8 13 30.21 1023 10 16.09344 0 0
11:15 am 11:15 Cloudy 54 12 45 7 72 72 S 8 13 30.15 1021 10 16.09344 0 0
11:35 am 11:35 Cloudy 55 13 45 7 67 67 S 7 11 30.15 1021 10 16.09344 0 0
11:55 am 11:55 Partly Cloudy 55 13 45 7 67 67 SSW 7 11 30.12 1020 10 16.09344 0 0
12:15 pm 12:15 Mostly Cloudy 55 13 46 8 72 72 S 7 11 30.09 1019 10 16.09344 0 0
12:35 pm 12:35 Mostly Cloudy 57 14 46 8 67 67 SSE 3 6 30.09 1019 10 16.09344 0 0
12:55 pm 12:55 Mostly Cloudy 55 13 46 8 72 72 S 3 6 30.06 1018 10 16.09344 0 0
1:15 pm 13:15 Cloudy 57 14 46 8 67 67 S 5 7 30.06 1018 10 16.09344 0 0
1:35 pm 13:35 Cloudy 57 14 46 8 67 67 S 6 9 30.06 1018 10 16.09344 0 0
1:55 pm 13:55 Mostly Cloudy 57 14 46 8 67 67 SSE 6 9 30.03 1017 10 16.09344 0 0
2:15 pm 14:15 Mostly Cloudy 57 14 46 8 67 67 S 5 7 30.03 1017 10 16.09344 0 0
2:35 pm 14:35 Mostly Cloudy 57 14 46 8 67 67 SSE 3 6 30.03 1017 10 16.09344 0 0
2:55 pm 14:55 Cloudy 57 14 46 8 67 67 Calm 30.03 1017 10 16.09344 0 0
3:15 pm 15:15 Cloudy 57 14 48 9 72 72 NW 3 6 30.03 1017 10 16.09344 0 0
3:35 pm 15:35 Cloudy 55 13 48 9 77 77 Calm 30.03 1017 10 16.09344 0 0
3:55 pm 15:55 Cloudy 54 12 52 11 94 94 NW 5 7 30.06 1018 10 16.09344 0 0
4:15 pm 16:15 Cloudy 54 12 50 10 88 88 N 5 7 30.06 1018 10 16.09344 0.01 0.254
4:35 pm 16:35 Cloudy 52 11 52 11 100 100 N 3 6 30.06 1018 5 8.04672 0.02 0.508
4:55 pm 16:55 Cloudy 52 11 52 11 100 100 N 3 6 30.06 1018 7 11.265408 0.04 1.016
5:15 pm 17:15 Cloudy 52 11 50 10 94 94 N 6 9 30.06 1018 7 11.265408 0.02 0.508
5:35 pm 17:35 Cloudy 50 10 50 10 100 100 N 5 7 30.12 1020 7 11.265408 0.04 1.016
5:55 pm 17:55 Cloudy 50 10 50 10 100 100 N 3 6 30.09 1019 10 16.09344 0.05 1.27
6:15 pm 18:15 Cloudy 50 10 50 10 100 100 N 3 6 30.09 1019 10 16.09344 0 0
6:35 pm 18:35 Cloudy 50 10 50 10 100 100 Calm 30.12 1020 10 16.09344 0 0
6:55 pm 18:55 Cloudy 50 10 50 10 100 100 N 6 9 30.12 1020 10 16.09344 0.01 0.254
7:15 pm 19:15 Cloudy 50 10 50 10 100 100 N 7 11 30.12 1020 10 16.09344 0.01 0.254
7:35 pm 19:35 Cloudy 48 9 46 8 94 94 N 6 9 30.09 1019 10 16.09344 0.01 0.254
7:55 pm 19:55 Cloudy 48 9 46 8 94 94 N 9 15 30.12 1020 10 16.09344 0.01 0.254
8:15 pm 20:15 Cloudy 46 8 46 8 100 100 N 8 13 30.12 1020 10 16.09344 0 0
8:35 pm 20:35 Cloudy 46 8 45 7 93 93 N 9 15 30.12 1020 10 16.09344 0 0
8:55 pm 20:55 Cloudy 46 8 43 6 87 87 N 14 22 30.12 1020 10 16.09344 0 0
9:15 pm 21:15 Cloudy 45 7 41 5 87 87 N 12 19 30.12 1020 10 16.09344 0 0
9:35 pm 21:35 Cloudy 45 7 41 5 87 87 N 13 20 30.15 1021 10 16.09344 0 0
9:55 pm 21:55 Cloudy 45 7 39 4 81 81 N 15 24 30.15 1021 10 16.09344 0 0
10:15 pm 22:15 Cloudy 45 7 37 3 76 76 N 14 22 30.15 1021 10 16.09344 0 0
10:35 pm 22:35 Mostly Cloudy 45 7 37 3 76 76 N 20 31 30.15 1021 10 16.09344 0 0
10:55 pm 22:55 Partly Cloudy 43 6 36 2 76 76 N 14 22 30.15 1021 10 16.09344 0 0
11:15 pm 23:15 Partly Cloudy 43 6 36 2 76 76 NNW 16 26 30.15 1021 10 16.09344 0 0
11:35 pm 23:35 Mostly Cloudy 43 6 36 2 76 76 NNW 14 22 30.15 1021 10 16.09344 0 0
11:55 pm 23:55 Mostly Cloudy 43 6 34 1 71 71 N 17 28 30.15 1021 10 16.09344 0 0

Powered by AerisWeather